User: anonymous   Login
Location: SAPM � Hemmingford
(45.0500°N, 73.5833°W)
Time: 01:33:05
(UTC-04:00)
Language:

Cosmos 1674 Rocket - Orbit

View from above orbital plane
View from above orbital plane
View from above satellite
View from above satellite

Ground track
Ground track

The orbit data is extracted from the following two-line orbital elements,

1 15945U 85069B   14302.53333978  .00000530  00000-0  61508-4 0  8051
2 15945 082.5257 313.4203 0019488 210.6957 308.2555 14.83452372578435
Epoch (UTC): 29 October 2014 12:48:00
Eccentricity: 0.0019488
inclination: 82.5257°
perigee height: 605 km
apogee height: 632 km
right ascension of ascending node: 313.4203°
argument of perigee: 210.6957°
revolutions per day: 14.83452372
mean anomaly at epoch: 308.2555°
orbit number at epoch: 57843

The dashed part of the orbit path shows where the satellite is in the earth's shadow,  

DLR